Weather History for Perry, FL

Change the Weather History Date:

Sunday, May 6, 2012

  Actual Average (KCTY) Record (KCTY)
Temperature  
Mean Temperature 76 °F 72 °F  
Max Temperature 90 °F 85 °F 91 °F (2007)
Min Temperature 63 °F 58 °F 48 °F (2013)
Degree Days  
Heating Degree Days 0 0  
Month to date heating degree days 0  
Since 1 July heating degree days 1303  
Cooling Degree Days 10 7  
Month to date cooling degree days 38  
Year to date cooling degree days 220  
Growing Degree Days 26 (Base 50)    
Moisture  
Dew Point 64 °F    
Average Humidity 70    
Maximum Humidity 93    
Minimum Humidity 42    
Precipitation  
Precipitation 0.00 in 0.09 in 0.22 in (2011)
Month to date precipitation 0.40  
Year to date precipitation 14.88  
Sea Level Pressure  
Sea Level Pressure 29.94 in    
Wind  
Wind Speed 5 mph (WSW)    
Max Wind Speed 17 mph    
Max Gust Speed 22 mph    
T = Trace of Precipitation, MM = Missing Value Source: NWS Daily Summary

Daily Weather History Graph

Daily Weather History Graph

Search for Another Location

Airport:

Trip Planner

Search our weather history database for the weather conditions in past years. The results will help you decide how hot, cold, wet, or windy it might be!

Date:

Astronomy

May. 06, 2012 Rise Set
Actual Time 6:46 AM EDT 8:15 PM EDT
Civil Twilight 6:21 AM EDT 8:41 PM EDT
Nautical Twilight 5:50 AM EDT 9:11 PM EDT
Astronomical Twilight 5:18 AM EDT 9:44 PM EDT
Moon 9:13 PM EDT (5/6) 6:59 AM EDT (5/6)
Length of Visible Light 14h 20m
Length of Day
13h 28m
Full, 100% of the Moon is Illuminated
May 6
Full
May 12
Last Quarter
May 20
New
May 28
First Quarter
Jun 4
Full

Hourly Weather History & Observations

Time (EDT) Temp. Heat Index Dew Point Humidity Pressure Visibility Wind Dir Wind Speed Gust Speed Precip Events Conditions
12:53 AM 70.0 °F - 64.9 °F 84% 29.96 in - WNW 5.8 mph - N/A   Unknown
1:53 AM 68.0 °F - 64.0 °F 87% 29.95 in - West 4.6 mph - N/A   Unknown
2:53 AM 68.0 °F - 64.0 °F 87% 29.94 in - Calm Calm - N/A   Unknown
3:53 AM 64.9 °F - 63.0 °F 93% 29.93 in - Calm Calm - N/A   Unknown
4:53 AM 63.0 °F - 61.0 °F 93% 29.93 in - Calm Calm - N/A   Unknown
5:53 AM 63.0 °F - 61.0 °F 93% 29.93 in - Calm Calm - N/A   Unknown
6:53 AM 63.0 °F - 61.0 °F 93% 29.94 in - Calm Calm - N/A   Unknown
7:53 AM 66.9 °F - 64.0 °F 90% 29.96 in - Calm Calm - N/A   Unknown
8:53 AM 70.0 °F - 68.0 °F 93% 29.96 in - West 3.5 mph - N/A   Unknown
9:53 AM 79.0 °F - 66.0 °F 64% 29.96 in - West 4.6 mph - N/A   Unknown
10:53 AM 84.9 °F 87.1 °F 66.0 °F 53% 29.96 in - Variable 5.8 mph - N/A   Unknown
11:53 AM 87.1 °F 89.2 °F 66.0 °F 49% 29.96 in - SSW 11.5 mph - N/A   Unknown
12:53 PM 87.1 °F 88.3 °F 64.0 °F 46% 29.96 in - WSW 10.4 mph 16.1 mph N/A   Unknown
1:53 PM 88.0 °F 88.4 °F 62.1 °F 42% 29.94 in - WSW 13.8 mph 19.6 mph N/A   Unknown
2:53 PM 88.0 °F 88.4 °F 62.1 °F 42% 29.92 in - SSW 13.8 mph - N/A   Unknown
3:53 PM 88.0 °F 89.3 °F 64.0 °F 45% 29.90 in - SW 13.8 mph - N/A   Unknown
4:53 PM 84.9 °F 86.6 °F 64.9 °F 51% 29.89 in - SW 17.3 mph 21.9 mph N/A   Unknown
5:53 PM 84.0 °F 86.3 °F 66.0 °F 55% 29.91 in - SSW 13.8 mph - N/A   Unknown
6:53 PM 80.1 °F 81.9 °F 64.9 °F 60% 29.95 in - NW 16.1 mph 19.6 mph N/A   Unknown
7:53 PM 75.0 °F - 62.1 °F 64% 29.95 in - NNE 4.6 mph - N/A   Unknown
8:53 PM 73.0 °F - 63.0 °F 71% 29.94 in - NE 3.5 mph - N/A   Unknown
9:53 PM 73.0 °F - 63.0 °F 71% 29.93 in - ESE 8.1 mph - N/A   Unknown
10:53 PM 70.0 °F - 63.0 °F 78% 29.91 in - SE 4.6 mph - N/A   Unknown
11:53 PM 69.1 °F - 62.1 °F 78% 29.90 in - Calm Calm - N/A   Unknown